Regional Weather Roundup
Issued by NWS Jackson, KY

Home | Current Version | Previous Version | Text Only | Print | Product List | Glossary Off
Versions: 1 2 3 4 5 6 7 8 9 10 11 12 13 14 15 16 17 18 19 20 21 22 23 24 25 26 27 28 29 30 31 32 33 34 35 36 37 38 39 40 41 42 43 44 45 46 47 48 49 50

915
ASUS43 KJKL 152310
RWRJKL

EAST KENTUCKY HOURLY WEATHER ROUNDUP
NATIONAL WEATHER SERVICE JACKSON KY
600 PM EST FRI DEC 15 2017

NOTE: "FAIR" INDICATES FEW OR NO CLOUDS BELOW 12,000 FEET WITH
NO SIGNIFICANT WEATHER AND/OR OBSTRUCTIONS TO VISIBILITY.

* THESE REPORTS ARE NOT UNDER NWS QUALITY CONTROL AND MAY NOT
  REPORT WEATHER SUCH AS PRECIPITATION AND FOG.

KYZ079-080-083-085-087-088-110-112-115-119-120-160000
...EASTERN KENTUCKY...

CITY           SKY/WX    TMP DP  RH WIND       PRES   REMARKS
JACKSON        CLOUDY    30  19  63 VRB5      30.07R WCI  25
LONDON         CLOUDY    32  20  61 SW5       30.10R WCI  27
SOMERSET*      CLOUDY    32  21  64 W6        30.14R WCI  26
MONTICELLO*    CLOUDY    33  22  63 W15       30.15R WCI  23
WILLIAMSBURG*  CLOUDY    30  19  64 SW3       30.12R
MIDDLESBORO*   CLEAR     31  20  62 CALM      30.13R
HARLAN APT*    CLOUDY    32  21  64 CALM      30.10R
PIKE CO APT*   CLOUDY    29  19  65 S3        30.06R
BIG SANDY APT* CLOUDY    31  19  62 SW6       30.07R WCI  25
MOREHEAD APT*  CLOUDY    32  19  59 SW10      30.08R WCI  24
$$

KYZ035-036-041-042-044-050-067-078-099-160000
...CENTRAL KENTUCKY...

CITY           SKY/WX    TMP DP  RH WIND       PRES   REMARKS
MT STERLING*   CLOUDY    32  21  64 W9        30.08S WCI  24
FLEMING/MASON* CLOUDY    32  21  64 W12       30.07R WCI  23
DANVILLE*      CLOUDY    32  21  64 SW8       30.11R WCI  25
LEXINGTON      CLOUDY    34  21  59 SW8       30.08R WCI  27
FRANKFORT      CLOUDY    35  20  54 SW8       30.07R WCI  29
LOUISVILLE     CLOUDY    37  22  54 SW8       30.09R WCI  31
LEBANON*         N/A     36  21  55 S7        30.11R WCI  30
GLASGOW*       CLOUDY    36  23  59 SW6       30.14R WCI  32
BOWLING GREEN  CLOUDY    39  23  52 SW7       30.15R WCI  34
$$

KYZ091>093-OHZ055-061-077-WVZ005-015-034-035-042-160000
...SOUTHERN OHIO/WEST VIRGINIA...

CITY           SKY/WX    TMP DP  RH WIND       PRES   REMARKS
COVINGTON      CLOUDY    32  22  66 W13       30.05R WCI  22
COLUMBUS       CLOUDY    31  20  63 W16G22    29.98R WCI  20
DAYTON         MOCLDY    27  21  78 W12       30.00R WCI  17
WILMINGTON     CLOUDY    30  21  69 W17       30.01R WCI  18
HUNTINGTON     CLOUDY    32  17  54 SW9       30.05R WCI  24
CHARLESTON     CLOUDY    32  16  51 SW12      30.04R WCI  23
PINEVILLE*       N/A     29  18  63 MISG      30.08S
BECKLEY        CLOUDY    24  15  68 W10       29.97R WCI  14
BLUEFIELD      CLOUDY    23  14  68 NW20G30   29.97R WCI   8
LOGAN CO APT*  CLOUDY    28  18  64 CALM      30.03R
$$

VAZ002-007-008-TNZ017-027-036-066-071-160000
...SOUTHWEST VIRGINIA/EAST TENNESSEE...

CITY           SKY/WX    TMP DP  RH WIND       PRES   REMARKS
WISE*          CLOUDY    28  21  74 W9G18     30.03R WCI  20
JONESVILLE*      N/A     32  19  59 W5        30.13R WCI  27
ABINGDON*      CLOUDY    32  21  64 W7        30.04R WCI  25
BRISTOL        MOCLDY    31  21  66 NW8       30.08R WCI  23
MORRISTOWN*    CLOUDY    34  23  64 SW8       30.11R WCI  27
SEVIERVILLE*   CLOUDY    34  23  64 SW3       30.14R
KNOXVILLE      PTCLDY    29  24  82 SW9       30.15R WCI  20
LAFOLLETTE*    CLEAR     28  19  69 CALM      30.17R
OAK RIDGE      CLEAR     34  21  59 CALM      30.16R
CROSSVILLE     CLEAR     28  19  69 W5        30.11R WCI  23
NASHVILLE      CLEAR     39  22  50 CALM      30.17R
$$

...KEY TO REMARKS...
VSB - VISIBILITY IN MILES
WCI - WIND CHILL INDEX
HX  - HEAT INDEX

$$




USA.gov is the U.S. government's official web portal to all federal, state and local government web resources and services.